Погода в Туркменбаши

Погода в Туркменбаши : погода сейчас, прогноз погоды и архив. Всё, что Вы хотите узнать о погоде в Туркменбаши!

Поиск расширенной информации на нашем сайте:

Другие новости

Новости СМИ2

Главная страница сайта

Новости сайта

03.07.2017

Напоминаем, что на нашем специализированном сайте Метеоцентр.Азия вы можете получить высокодетализированные автоматические прогнозы погоды по пунктам России, СНГ и мира в авиационном формате (включающие направление и скорость ветра, видимость, явления погоды, количество и форму облачности, нижнюю и верхнюю границу облачности).

Рекомендуем: Видеоэндоскопы mitcorp видеоэндоскоп.

Погода в Туркменбаши - сегодня

Время (UTC), дата Ветер
(°,м/с) 
Видим.   Явления Облачность Т
(°С)
Тd
(°С)
f(%) Тe
(°С)
Pmin
(гПа)
dP
(гПа)
Po
(мм)
O2
(г/м3)
Тmin Tmax R s Состояние
почвы
00 19.11.17 090 (В) 4000 м    4/0 средняя 
[Ac trans]
+7.1 +3.6 78 +6  1024.4  -0.6  761  298           
03 19.11.17 100 (В) 4000 м    ясно 
+5.3 +3.4 88 +4  1023.5  -0.9  760  300  +5.3        сухая 
06 19.11.17 120 (ЮВ) 20000 м    ясно 
+12 +5 62 +12  1023.1  -0.2  760  292  +5.3         
09 19.11.17 160 (Ю) 20000 м    3/0 верхняя 
[Ci fib]
+15.2 +5.6 53 +15  1022.2  -0.7  759  289           
12 19.11.17 120 (ЮВ) 20000 м    3/0 верхняя 
[Ci fib]
+15.4 +5 50 +15  1020.4  -1.8  758  288           
15 19.11.17 110 (В) 4000 м    ясно 
+10.6 +6.4 75 +11  1019.6  -1  757  293    +15.9       
18 19.11.17 130 (ЮВ) 4000 м    ясно 
+10.6 +4.8 67 +10  1019.1  -0.5  757  293    +15.9       
21 19.11.17 110 (В) 4000 м    ясно 
+12.2 +5 61 +12  1017.9  -1.1  756  291           
00 20.11.17 100 (В) 4000 м    ясно 
+13.8 +3 48 +14  1016.6  -1.2  755  289           
03 20.11.17 140 (ЮВ) 4000 м    5/0 средняя, верхняя 
[Ac trans|Ci fib]
+13.3 +0.9 43 +13  1016.2  -0.4  755  290           
06 20.11.17 140 (ЮВ) 20000 м    5/0 верхняя 
[Ci fib]
+16 +0.4 35 +16  1016.5  0.4  755  287  +10.4         
09 20.11.17 170 (Ю) 20000 м    8/0 верхняя 
[Ci fib]
+19.2 -0.9 26 +19  1015.2  -1.3  754  284           
12 20.11.17 150 (ЮВ) 20000 м    8/0 верхняя 
[Ci fib]
+18.7 +0 28 +19  1014.4  -0.8  753  284           
15 20.11.17 140 (ЮВ) 4000 м    10/0 средняя, верхняя 
[Ac trans|Ci fib]
+15.4 +4.3 47 +15  1014.7  0.3  754  287    +19.3       
18 20.11.17 160 (Ю) 4000 м    8/0 верхняя 
[Ci fib]
+15.1 +1.3 39 +14  1014.9  0.1  754  288    +19.3       
21 20.11.17 170 (Ю) 4000 м    ясно 
+15.8 -0.2 34 +15  1013.6  -1.2  753  287           
00 21.11.17 160 (Ю) 4000 м    ясно 
+14.2 +1.5 42 +14  1013.4  -0.3  753  288           
03 21.11.17 130 (ЮВ) 20000 м    3/0 верхняя 
[Ci fib]
+14 +0 38 +13  1012  -1.3  752  288           
06 21.11.17 150 (ЮВ) 20000 м    8/0 верхняя 
[Ci fib]
+17.8 +3.8 39 +17  1011.9  752  284  +14         
09 21.11.17 140 (ЮВ) 20000 м    8/0 верхняя 
[Ci fib]
+19.9 -3.8 20 +20  1009.7  -2.1  750  282           
12 21.11.17 140 (ЮВ) 20000 м    8/0 верхняя 
[Ci fib]
+21.4 -0.7 23 +21  1007.7  -2  749  280           
15 21.11.17 130 (ЮВ) 4000 м    8/0 средняя, верхняя 
[Ac trans|Ci fib]
+19.6 -0.5 26 +20  1007.1  -0.6  748  281    +21.5       
18 21.11.17 130 (ЮВ) 4000 м    8/0 средняя, верхняя 
[Ac trans|Ci fib]
+18.6 -1.7 25 +19  1005.9  -1.3  747  282    +21.5       
21 21.11.17 120 (ЮВ) 4000 м    8/0 средняя, верхняя 
[Ac trans|Ci fib]
+19.5 -4.1 20 +19  1004.2  -1.6  746  281           
00 22.11.17 130 (ЮВ) 4000 м    5/0 верхняя 
[Ci fib]
+19.2 -4.4 20 +19  1003.3  -1  745  281           
Время (UTC), дата Ветер
(°,м/с) 
Видим.   Явления Облачность Т
(°С)
Тd
(°С)
f(%) Тe
(°С)
Pmin
(гПа)
dP
(гПа)
Po
(мм)
O2
(г/м3)
Тmin Tmax R s Состояние
почвы

Для получения пояснительной информации подведите курсор к названию столбца.

ПОГОДА в Туркменбаши - архив

Всё, что Вы хотите узнать о погоде в Туркменбаши - удобно и подробно!

Выберите нужную дату (начиная с 1 января 2015* года) и нажмите кнопку "Найти".
Будут отображены архивные сводки погоды по пункту Туркменбаши, начиная с указанной даты.


Отображать данные в формате CSV (для использования в таблицах Excel)


Внимание! Наш архив погоды предназначен исключительно для личного некоммерческого использования в познавательных целях. Если Вам необходимы официальные справки о состоянии погоды (для производственных, юридических, коммерческих и т.п. целей), обращайтесь в органы Росгидромета.

*Примечание: данная дата относится к архиву по метеостанциям СССР (Россия, СНГ, Балтия).
Архив по метеостанциям Зарубежной Европы и Азии (кроме Китая) хранится 10 дней, по другим регионам земного шара (Китай, Африка, Америка, Австралия, Океания) - 1 день.

Туркменбаши - район местоположения метеостанции


Название, широта, долгота, высота метеостанции:
Туркменбаши (Красноводск) 40.1°ш. 53°д. -13 м над ур. моря [Туркменистан]

Дополнительная информация

В oтличие oт бoльшинства пoгoдных сайтoв мы публикуем пoдрoбную метеoинфoрмацию в детальнoм прoфессиoнальнoм фoрмате.

Характеристики температуры и влажнoсти вoздуха измеряются на высoте 2 м в тени вдали oт зданий и деревьев.
Скoрoсть ветра измеряется на высoте 10 м (на урoвне рoста челoвека скoрoсть ветра ниже в 1.5-2 раза). Если метеoстанция нахoдится в гoрoде или в лесу, тo скoрoсть ветра занижена на 2-4 м/с пo сравнению с oткрытым местoм. Скoрoсть ветра над акватoриями крупных рек и oзёр, а также на вершинах хoлмoв на 2-5 м/с выше, чем в oбычных услoвиях.
Атмoсфернoе давление в разных тoчках местнoсти мoжет значительнo oтличаться oт давления на метеoстанции, в зависимoсти oт услoвий рельефа (при пoдъёме на 10 м давление пoнижается примернo на 1 мм рт.ст.).